This is the latest recevied weather packets stored in our database for station/object OE6JVE-13. If no packets are shown the sender has not sent any weather packets the latest 10 day(s).
| Time | Temp. | Humidity | Pressure | Rain* | Wind** | Luminosity | Snow |
|---|---|---|---|---|---|---|---|
| 1777942547 | 11.67° C | 64% | 1005 hPa | 0 mm | - | - | - |
| 1777941955 | 11.11° C | 64% | 1005 hPa | 0 mm | - | - | - |
| 1777941363 | 10.56° C | 64% | 1005.2 hPa | 0 mm | - | - | - |
| 1777940771 | 10.56° C | 64% | 1005.2 hPa | 0 mm | - | - | - |
| 1777940178 | 11.11° C | 63% | 1005.3 hPa | 0 mm | - | - | - |
| 1777939521 | 11.11° C | 62% | 1005.3 hPa | 0 mm | - | - | - |
| 1777938929 | 11.11° C | 61% | 1005.4 hPa | 0 mm | - | - | - |
| 1777938337 | 11.67° C | 60% | 1005.4 hPa | 0 mm | - | - | - |
| 1777937745 | 12.22° C | 55% | 1005.4 hPa | 0 mm | - | - | - |
| 1777937153 | 13.33° C | 50% | 1005.4 hPa | 0 mm | - | - | - |
| 1777936561 | 15° C | 45% | 1005.5 hPa | 0 mm | - | - | - |
| 1777935969 | 16.67° C | 37% | 1005.6 hPa | 0 mm | - | - | - |
| 1777935377 | 17.22° C | 33% | 1005.7 hPa | 0 mm | - | - | - |
| 1777934719 | 17.78° C | 31% | 1005.7 hPa | 0 mm | - | - | - |
| 1777934127 | 17.78° C | 30% | 1005.8 hPa | 0 mm | - | - | - |
| 1777933535 | 17.78° C | 31% | 1005.8 hPa | 0 mm | - | - | - |
| 1777932943 | 16.11° C | 39% | 1005.7 hPa | 0 mm | - | - | - |
| 1777932351 | 15° C | 49% | 1005.9 hPa | 0 mm | - | - | - |
| 1777931759 | 15.56° C | 47% | 1006 hPa | 0 mm | - | - | - |
| 1777931167 | 16.67° C | 41% | 1006.1 hPa | 0 mm | - | - | - |
| 1777930574 | 16.67° C | 41% | 1006 hPa | 0 mm | - | - | - |
| 1777929917 | 17.78° C | 34% | 1005.9 hPa | 0 mm | - | - | - |
| 1777929324 | 17.78° C | 36% | 1006 hPa | 0 mm | - | - | - |
| 1777928733 | 18.33° C | 34% | 1006.1 hPa | 0 mm | - | - | - |
| 1777928141 | 18.89° C | 34% | 1006.1 hPa | 0 mm | - | - | - |
* Rain latest hour (hover to see other rain measurements)
** Current wind speed in m/s (hover to see current wind gust speed)